Regional Weather Roundup
Issued by NWS Green Bay, WI

Home | Current Version | Previous Version | Graphics & Text | Print | Product List | Glossary Off
Versions: 1 2 3 4 5 6 7 8 9 10 11 12 13 14 15 16 17 18 19 20 21 22 23 24 25 26 27 28 29 30 31 32 33 34 35 36 37 38 39 40 41 42 43 44 45 46 47 48 49 50

000
ASUS43 KGRB 271910
RWRGRB

NORTH-CENTRAL AND NORTHEAST WISCONSIN REGIONAL WEATHER ROUNDUP
NATIONAL WEATHER SERVICE GREEN BAY WI
200 PM CDT WED AUG 27 2014

WIZ005-009-010>012-018-019-272000-
NORTH CENTRAL WISCONSIN

CITY           SKY/WX    TMP DP  RH WIND       PRES   REMARKS
IRONWOOD       NOT AVBL
MANITOWISH WTR MOSUNNY   66  48  52 SW5       30.21F
ARBOR VITAE    SUNNY     66  48  51 NW7       30.21F
EAGLE RIVER    MOSUNNY   66  46  49 W7        30.20F
LAND O LAKES   PTSUNNY   67  47  48 NW8       30.21F
RHINELANDER    MOSUNNY   67  49  52 N6        30.21
PHILLIPS       SUNNY     66  49  53 W5        30.21F
ANTIGO         MOSUNNY   68  53  60 NW7       30.20F
TOMAHAWK       MOSUNNY   67  48  49 NW5       30.21S
MERRILL        MOSUNNY   69  53  56 W7        30.19F
$$

WIZ013-073-272000-
NORTHEAST WISCONSIN

CITY           SKY/WX    TMP DP  RH WIND       PRES   REMARKS
IRON MOUNTAIN  MOSUNNY   68  47  46 W12       30.18
MARINETTE      CLOUDY    66  54  63 CALM      30.17F
OCONTO         CLOUDY    67  55  65 NE3       30.17F
$$

WIZ017-030-035>037-045-272000-
CENTRAL WISCONSIN

CITY           SKY/WX    TMP DP  RH WIND       PRES   REMARKS
MEDFORD        SUNNY     68  51  54 NW7       30.21S
WAUSAU         SUNNY     71  54  54 NW8       30.18
MOSINEE        PTSUNNY   70  57  64 NW8       30.20
MARSHFIELD     MOSUNNY   72  56  57 W6        30.19
WISC RAPIDS    MOSUNNY   74  55  51 W8        30.20
STEVENS POINT  PTSUNNY   69  55  59 W5        30.19F
WAUPACA        MOSUNNY   75  54  46 NW5       30.18S
SHAWANO        CLOUDY    72  56  58 CALM      30.18F
CLINTONVILLE   CLOUDY    70  54  56 NW3       30.18S
$$

WIZ038-039-048-051-272000-
FOX VALLEY

CITY           SKY/WX    TMP DP  RH WIND       PRES   REMARKS
NWS GREEN BAY  PTSUNNY   70  56  61 N8        30.18
APPLETON       PTSUNNY   70  54  56 VRB6      30.18
OSHKOSH        MOSUNNY   73  56  54 VRB5      30.17
FOND DU LAC    MOSUNNY   73  56  54 N9        30.18
$$

WIZ022-050-052-272000-
EAST CENTRAL WISCONSIN

CITY           SKY/WX    TMP DP  RH WIND       PRES   REMARKS
STURGEON BAY   CLOUDY    66  54  63 NW6       30.19F
MANITOWOC      CLOUDY    69  56  62 SE5       30.18
SHEBOYGAN      PTSUNNY   72  56  57 E6        30.18
$$

LMZ563-521-522-541>543-272000-
LAKESHORE

STATION/POSITION TIME  TEMP    WIND        PRES    VSBY  WAVE
                       AIR SEA DIR/SP/G                  HT/PER
                 (UTC) (F)     (DEG/KT/KT) (MB)    (MI)  (FT/S)
SHEBOYGAN LKSHOR 1900   65 67   80/  7/  8 1022.1F
KEWAUNEE LKSHORE 1900   66     110/  4/  6 1021.0F
NORTHPORT PIER   1900   65     310/  4/  6 1022.0S
N MID LAKE BUOY  1900   62 67  260/  4/  6 1022.3S         0
S GREEN BAY BUOY 1900   66     VRB  2      1022.7F
SISTER BAY LKSHO 1800   72        CALM       N/A
CHAMBERS ISLAND  1900   67     210/  2/  6 1022.4S
MENOMINEE LKSHOR 1900   65     120/  4/  5 1022.4F
$$


USA.gov is the U.S. government's official web portal to all federal, state and local government web resources and services.